{"data":{"norad_id":49809,"epoch":"2026-09-18T06:14:54.188160Z","epoch_age_seconds":207767,"freshness":"STALE","line1":"1 49809U 21116A   26261.26034940 -.00000095  00000+0  00000+0 0  9999","line2":"2 49809  57.1228 339.1611 0003928 222.0654 138.9707  1.70476661 29772","mean_motion":1.70476661,"eccentricity":0.0003928,"inclination_deg":57.1228,"raan_deg":339.1611,"arg_perigee_deg":222.0654,"mean_anomaly_deg":138.9707,"bstar":0,"rev_number":2977,"period_min":844.69040603746,"perigee_km":23210.248147658,"apogee_km":23233.50191711,"semimajor_km":29600.012032384,"source":"CELESTRAK","updated_at":"2026-09-20T09:00:46.497913Z"}}